BREEZE-M DEB, 32033

Orbit data source: Space-Track

BREEZE-M DEB, 32033 is space debris in HEO originally from a launch on Tue, 28 Feb 2006 UTC launched from the Tyuratam Missile And Space Complex (TTMTR). Debris objects in space refer to the collection of defunct objects orbiting the Earth. Examples of debris include non-operational satellites, rocket bodies, and fragments generated from explosions, collisions, or faulty payload assembly.

Loading next visibility...
Identifier
32033, 2006-006L
Orbit
HEO
Country
Flag of CISCIS
Related business
Manufacturer
Khrunichev
Mission
Spacecraft
Bus & Motor
Unknown
Mass
Unknown
Launch date (UTC)
2006-02-28 (20 years ago)
Launch vehicle
Unknown
Launch site
Tyuratam Missile And Space Complex (TTMTR)
Object type
Payload
Rocket body
Debris
Shape & HBR
Unknown shape, 0.1 m
Radar Cross Section
Medium (>0.1 m² and <1 m²)

Expand to show TLE details & history
Last TLE update: 2 days ago

TLE from 2 days ago
0 BREEZE-M DEB
1 32033U 06006L   26161.35912493  .00000900  00000-0  12515-2 0  9990
2 32033  51.6424 151.9136 5055469  34.8022 349.7314  5.30358805369167
Epoch: 2026-06-10T08:37Z
TLE epoch observation values (Epoch: 2026-06-10T08:37:08.393Z)
Latitude
-0.00016°
Longitude
123.8975°
Altitude
927.659 km
Speed
8.969 km/s
True Right ascension
10h 07m 36s
True Declination
0° 00' 01"
Sunlit
Object was in daylight at epoch
Visualization orbit readout
Latitude
Unknown
Longitude
Unknown
Altitude
Unknown
Speed
Unknown
Apparent Right ascension
Unknown
Apparent Declination
Unknown
Sunlit
N/A
Visualization observer readout
Local Sidereal Time
16:50:37
Azimuth
Unknown
Elevation
Unknown
Doppler factor
Unknown
Orbital elements
Apogee altitude
14,533.845 km
Perigee altitude
489.795 km
Semi-major axis
13,889.957 km
Eccentricity
0.50555
Inclination
51.6424°
RAAN
151.9136°
Arg. of periapsis
34.8022°
True anomaly
325.24723°
Mean anomaly
349.7314°
Eccentric anomaly
339.66609°
Mean motion
1.32584 °/min
Orbital period
271.53 mins
BSTAR
0.0012515
Loading maneuver chart data...
Computing Atmospheric mass density...
Loading historical data...
Loading historical data...
Loading historical data...
Loading historical data...
Loading historical data...
Loading historical data...
Loading historical data...

Documentation

Showing up to 5 results
|